#timestamp,LO_Frequency,Hit,StdDev 
1602525615.1,286047004.5,N
1602525616.0,286047004.5,N
1602525635.8,286047004.0,N
1602525655.6,286047003.1,N
1602525675.5,286047006.6,N
1602525695.3,286047007.1,N
1602525715.2,286047005.7,N
1602525735.9,286047000.6,N
1602525755.7,286047005.1,N
1602525775.6,286047005.7,N
1602525795.4,286047008.0,N
1602525815.2,286047011.3,N
1602525835.1,286047011.2,N
1602525836.0,286047011.2,N
1602525855.8,286047015.4,Y
1602525875.7,286047012.5,P
1602525895.5,286047012.2,N
1602525915.3,286047012.1,N
1602525935.2,286047010.3,N
1602525955.0,286047008.1,N
1602525955.9,286047008.1,N
1602525975.8,286047011.4,Y
1602525995.6,286046999.7,P
1602526015.4,286047003.9,N
1602526035.3,286047004.0,N
1602526055.1,286047001.6,N
1602526075.9,286047002.3,N
1602526095.7,286047002.5,N
1602526115.5,286047002.0,N
1602526135.4,286047005.5,N
1602526155.2,286047005.2,N
1602526175.0,286047005.0,N
1602526175.9,286047005.0,N
1602526195.8,286047009.1,Y
1602526215.6,286047006.2,P
1602526235.5,286047006.5,P
1602526255.3,286047007.0,P
1602526275.1,286047010.1,Y
1602526295.9,286047002.3,P
1602526315.7,286047002.0,N
1602526335.6,286047004.4,N
1602526355.4,286047005.8,Y
1602526375.2,286046998.2,P
1602526395.1,286046998.1,N
1602526396.0,286046998.1,N
1602526415.8,286047001.0,N
1602526435.7,286047003.6,N
1602526455.5,286047004.7,N
1602526475.3,286047011.9,Y
1602526495.2,286047001.9,P
1602526515.0,286047006.0,P
1602526515.9,286047006.0,N
1602526535.8,286047005.1,N
1602526555.6,286047006.5,Y
1602526575.4,286047004.6,P
1602526595.3,286047004.8,P
1602526615.1,286047002.5,P
1602526635.8,286047001.7,N
1602526655.7,286047001.3,N
1602526675.5,286047003.4,N
1602526695.4,286047003.0,N
1602526715.2,286047007.1,Y
1602526735.0,286047005.1,P
1602526735.9,286047005.1,P
1602526755.8,286047005.1,P
1602526775.6,286047007.9,Y
1602526795.5,286047003.9,P
1602526815.3,286047002.3,P
1602526835.1,286047002.5,N
1602526855.9,286046999.4,N
1602526875.7,286046997.7,N
1602526895.6,286046998.8,N
1602526915.4,286047001.0,N
1602526935.2,286046999.9,N
1602526955.1,286047001.5,N
1602526956.0,286047001.5,N
1602526975.8,286047001.4,N
1602526995.6,286047004.3,N
1602527015.5,286047002.8,N
1602527035.3,286046997.0,N
1602527055.2,286047001.2,N
1602527075.9,286046999.8,N
1602527095.7,286047002.6,N
1602527115.6,286047005.4,N
1602527135.4,286047002.9,N
1602527155.3,286047010.8,Y
1602527175.1,286047009.1,P
1602527176.0,286047009.1,N
1602527195.8,286047006.0,N
1602527215.7,286047005.4,N
1602527235.5,286047010.6,Y
1602527255.4,286047002.8,P
1602527275.2,286046998.6,N
1602527295.0,286047002.3,N
1602527295.9,286047002.3,N
1602527315.8,286047006.6,N
1602527335.6,286047005.7,N
1602527355.4,286047008.4,Y
1602527375.3,286047008.5,P
1602527395.1,286047008.3,P
1602527415.9,286047007.4,P
1602527435.7,286047008.1,Y
1602527455.5,286047003.4,P
1602527475.4,286047000.2,N
1602527495.2,286047002.4,N
1602527515.1,286046998.2,N
1602527516.0,286046998.2,N
1602527535.8,286046998.9,N
1602527555.6,286047002.0,N
1602527575.5,286047004.8,N
1602527595.3,286047007.0,N
1602527615.1,286047005.2,N
1602527635.9,286047008.2,N
1602527655.7,286047006.2,N
1602527675.6,286047011.9,Y
1602527695.4,286047014.0,P
1602527715.2,286047011.3,N
1602527735.1,286047011.1,N
1602527736.0,286047011.1,N
1602527755.8,286047013.8,Y
1602527775.7,286047005.6,P
1602527795.5,286047005.1,N
1602527815.3,286047008.4,P
1602527835.2,286047009.9,Y
1602527855.0,286046999.8,P
1602527855.9,286046999.8,N
1602527875.7,286047000.6,N
1602527895.6,286047002.1,N
1602527915.4,286047003.8,N
1602527935.3,286047005.0,N
1602527955.1,286047004.6,N
1602527956.0,286047004.6,N
1602527975.8,286047005.4,N
1602527995.7,286047003.0,N
1602528015.5,286047003.9,N
1602528035.4,286047001.6,N
1602528055.2,286047005.3,N
1602528075.0,286047001.6,N
1602528075.9,286047001.6,N
1602528095.8,286047004.0,N
1602528115.6,286047001.8,N
1602528135.4,286047004.5,N
1602528155.3,286047010.8,Y
1602528175.1,286047003.7,P
1602528195.9,286047003.0,P
1602528215.7,286047003.2,P
1602528235.5,286047005.5,Y
1602528255.4,286047001.1,P
1602528275.2,286046999.2,N
1602528295.1,286046998.5,N
1602528296.0,286046998.5,N
1602528315.8,286047001.7,N
1602528335.6,286047001.4,N
1602528355.5,286046996.5,N
1602528375.3,286046998.2,N
1602528395.1,286047001.9,N
1602528415.9,286047001.9,N
1602528435.7,286046999.8,N
1602528455.6,286047001.3,N
1602528475.4,286047001.8,N
1602528495.2,286047004.7,N
1602528515.1,286047003.9,N
1602528516.0,286047003.9,N
1602528535.8,286047001.8,N
1602528555.7,286047001.4,N
1602528575.5,286047007.6,Y
1602528595.3,286047004.2,P
1602528615.2,286047003.4,N
1602528635.0,286047002.0,N
1602528635.9,286047002.0,N
1602528655.7,286046998.1,N
1602528675.6,286047004.0,N
1602528695.4,286047005.7,N
1602528715.3,286047003.2,N
1602528735.1,286047005.7,N
1602528736.0,286047005.7,N
1602528755.8,286047001.9,N
1602528775.7,286047002.3,N
1602528795.5,286047001.3,N
1602528815.3,286047001.7,N
1602528835.2,286047005.7,N
1602528855.0,286047005.5,N
1602528855.9,286047005.5,N
1602528875.8,286047009.0,Y
1602528895.6,286047005.1,P
1602528915.4,286047008.1,P
1602528935.3,286047012.4,P
1602528955.1,286047004.8,N
1602528975.9,286047003.4,N
1602528995.7,286047006.5,N
1602529015.5,286047005.4,N
1602529035.4,286047003.1,N
1602529055.2,286047004.7,N
1602529075.1,286047005.1,N
1602529076.0,286047005.1,N
1602529095.8,286047009.2,Y
1602529115.6,286047004.2,P
1602529135.5,286047003.8,P
1602529155.3,286047001.5,N
1602529175.1,286047004.3,N
1602529195.9,286047003.6,N
